Troy, MI

10:17 AM EDT on July 20, 2017 (GMT -0400)
Troy

Weather History for KVLL - November, 2013

Change the Weather History Date:

Friday, November 1, 2013

  Actual Average (KDET) Record (KDET)
Temperature  
Mean Temperature 54 °F -  
Max Temperature 61 °F 57 °F 81 °F (1950)
Min Temperature 48 °F 44 °F 26 °F (1949)
Degree Days  
Heating Degree Days 10    
Growing Degree Days 4 (Base 50)    
Moisture  
Dew Point 43 °F    
Average Humidity 73    
Maximum Humidity 94    
Minimum Humidity 59    
Precipitation  
Precipitation 0.00 in - - ()
Sea Level Pressure  
Sea Level Pressure 29.49 in    
Wind  
Wind Speed 13 mph (WSW)    
Max Wind Speed 22 mph    
Max Gust Speed 37 mph    
Visibility 10 miles    
Events Rain    
Averages and records for this station are not official NWS values.
T = Trace of Precipitation, MM = Missing Value Source: NWS Daily Summary

Daily Weather History Graph

Daily Weather History Graph

Search for Another Location

Airport or City:

Trip Planner

Search our weather history database for the weather conditions in past years. The results will help you decide how hot, cold, wet, or windy it might be!

Date:

Astronomy

Nov. 01, 2013 Rise Set
Actual Time 8:06 AM EDT 6:25 PM EDT
Civil Twilight 7:37 AM EDT 6:54 PM EDT
Nautical Twilight 7:04 AM EDT 7:27 PM EDT
Astronomical Twilight 6:31 AM EDT 8:00 PM EDT
Moon 5:55 AM EDT (11/1) 5:19 PM EDT (11/1)
Length of Visible Light 11h 17m
Length of Day
10h 18m
Waning Crescent, 4% of the Moon is Illuminated
Nov 1
Waning Crescent
Nov 3
New
Nov 10
First Quarter
Nov 17
Full
Nov 25
Last Quarter

Hourly Weather History & Observations

Time (EDT) Temp. Dew Point Humidity Pressure Visibility Wind Dir Wind Speed Gust Speed Precip Events Conditions
12:14 AM 61.7 °F 59.9 °F 94% 29.18 in 10.0 mi SW 11.5 mph 18.4 mph N/A Rain Light Rain
12:35 AM 61.7 °F 59.9 °F 94% 29.17 in 10.0 mi SSW 11.5 mph 18.4 mph N/A   Overcast
12:55 AM 61.7 °F 59.5 °F 93% 29.18 in 10.0 mi SW 11.5 mph 17.3 mph N/A   Overcast
1:14 AM 61.3 °F 59.4 °F 93% 29.16 in 10.0 mi WSW 11.5 mph 23.0 mph N/A Rain Rain
1:35 AM 61.0 °F 59.0 °F 93% 29.14 in 10.0 mi SW 11.5 mph - N/A   Mostly Cloudy
1:55 AM 60.6 °F 58.1 °F 91% 29.15 in 10.0 mi WSW 10.4 mph 18.4 mph N/A   Mostly Cloudy
2:14 AM 60.1 °F 56.7 °F 88% 29.16 in 10.0 mi WSW 18.4 mph 33.4 mph N/A   Overcast
2:35 AM 59.4 °F 55.0 °F 86% 29.17 in 10.0 mi WSW 11.5 mph 23.0 mph N/A   Overcast
2:54 AM 59.0 °F 54.3 °F 84% 29.18 in 10.0 mi SW 13.8 mph 23.0 mph N/A   Overcast
3:15 AM 58.5 °F 53.1 °F 82% 29.20 in 10.0 mi WSW 16.1 mph 31.1 mph N/A   Overcast
3:34 AM 56.5 °F 53.1 °F 88% 29.24 in 5.0 mi WSW 21.9 mph 33.4 mph N/A Rain Rain
3:54 AM 55.4 °F 51.4 °F 87% 29.23 in 10.0 mi WSW 19.6 mph 31.1 mph N/A   Overcast
4:14 AM 55.0 °F 50.7 °F 85% 29.25 in 10.0 mi WSW 17.3 mph 29.9 mph N/A   Overcast
4:34 AM 55.2 °F 50.0 °F 83% 29.26 in 10.0 mi WSW 20.7 mph 26.5 mph N/A   Overcast
4:54 AM 54.9 °F 48.6 °F 79% 29.27 in 10.0 mi WSW 18.4 mph 27.6 mph N/A   Overcast
5:15 AM 54.0 °F 46.4 °F 76% 29.30 in 10.0 mi WSW 16.1 mph 27.6 mph N/A   Mostly Cloudy
5:34 AM 53.6 °F 44.4 °F 71% 29.32 in 10.0 mi West 19.6 mph 36.8 mph N/A   Mostly Cloudy
5:55 AM 53.1 °F 44.2 °F 72% 29.33 in 10.0 mi WSW 16.1 mph 32.2 mph N/A   Overcast
6:14 AM 52.9 °F 44.4 °F 73% 29.35 in 10.0 mi West 16.1 mph 29.9 mph N/A   Overcast
6:34 AM 52.7 °F 44.6 °F 74% 29.36 in 10.0 mi WSW 16.1 mph 26.5 mph N/A   Overcast
6:54 AM 52.3 °F 44.2 °F 74% 29.37 in 10.0 mi WSW 20.7 mph 24.2 mph N/A   Overcast
7:14 AM 51.1 °F 42.3 °F 72% 29.40 in 10.0 mi WSW 17.3 mph 33.4 mph N/A   Overcast
7:34 AM 50.9 °F 42.1 °F 72% 29.40 in 10.0 mi SW 13.8 mph 21.9 mph N/A   Overcast
7:54 AM 50.5 °F 41.9 °F 72% 29.42 in 10.0 mi WSW 19.6 mph 28.8 mph N/A   Overcast
8:15 AM 50.2 °F 41.9 °F 73% 29.43 in 10.0 mi WSW 17.3 mph 27.6 mph N/A   Overcast
8:34 AM 50.2 °F 41.2 °F 71% 29.44 in 10.0 mi WSW 17.3 mph 25.3 mph N/A   Overcast
8:55 AM 50.2 °F 40.3 °F 69% 29.46 in 10.0 mi WSW 16.1 mph 27.6 mph N/A   Overcast
9:15 AM 50.2 °F 39.7 °F 67% 29.48 in 10.0 mi WSW 16.1 mph 25.3 mph N/A   Overcast
9:34 AM 50.4 °F 38.7 °F 64% 29.49 in 10.0 mi West 18.4 mph 34.5 mph N/A   Overcast
9:55 AM 50.0 °F 39.2 °F 66% 29.51 in 10.0 mi WSW 13.8 mph 24.2 mph N/A   Overcast
10:14 AM 50.0 °F 37.6 °F 62% 29.53 in 10.0 mi WSW 19.6 mph 32.2 mph N/A   Overcast
10:35 AM 50.0 °F 37.9 °F 63% 29.54 in 10.0 mi West 16.1 mph 26.5 mph N/A   Overcast
10:55 AM 50.0 °F 38.1 °F 64% 29.54 in 10.0 mi West 18.4 mph 27.6 mph N/A   Overcast
11:14 AM 50.0 °F 38.3 °F 64% 29.55 in 10.0 mi West 16.1 mph 26.5 mph N/A   Overcast
11:35 AM 50.0 °F 38.1 °F 64% 29.54 in 10.0 mi WSW 12.7 mph 18.4 mph N/A   Overcast
11:54 AM 50.2 °F 37.4 °F 62% 29.56 in 10.0 mi WSW 10.4 mph 28.8 mph N/A   Overcast
12:15 PM 50.9 °F 38.1 °F 62% 29.56 in 10.0 mi WSW 10.4 mph 16.1 mph N/A   Overcast
12:34 PM 51.3 °F 37.4 °F 59% 29.57 in 10.0 mi West 17.3 mph 24.2 mph N/A   Overcast
12:54 PM 51.4 °F 37.4 °F 59% 29.58 in 10.0 mi West 13.8 mph 24.2 mph N/A   Overcast
1:15 PM 51.8 °F 37.8 °F 59% 29.58 in 10.0 mi WSW 13.8 mph 20.7 mph N/A   Overcast
1:34 PM 52.0 °F 38.1 °F 59% 29.58 in 10.0 mi West 10.4 mph 19.6 mph N/A   Overcast
1:54 PM 52.0 °F 38.3 °F 60% 29.58 in 10.0 mi WSW 11.5 mph 20.7 mph N/A   Overcast
2:15 PM 51.8 °F 39.0 °F 62% 29.59 in 10.0 mi SW 9.2 mph 16.1 mph N/A   Overcast
2:34 PM 51.3 °F 40.1 °F 66% 29.59 in 10.0 mi SW 13.8 mph 19.6 mph N/A   Overcast
2:54 PM 51.4 °F 40.5 °F 66% 29.59 in 10.0 mi WSW 9.2 mph 17.3 mph N/A   Overcast
3:14 PM 51.1 °F 40.6 °F 67% 29.60 in 10.0 mi WSW 10.4 mph 20.7 mph N/A   Overcast
3:34 PM 51.3 °F 40.3 °F 66% 29.60 in 10.0 mi SW 11.5 mph 17.3 mph N/A   Overcast
3:54 PM 50.9 °F 39.9 °F 66% 29.61 in 10.0 mi WSW 13.8 mph 19.6 mph N/A   Overcast
4:14 PM 50.4 °F 39.4 °F 66% 29.62 in 10.0 mi SW 9.2 mph 20.7 mph N/A   Overcast
4:34 PM 50.2 °F 39.9 °F 68% 29.62 in 10.0 mi WSW 9.2 mph 16.1 mph N/A   Overcast
4:54 PM 50.0 °F 39.7 °F 68% 29.62 in 10.0 mi SW 10.4 mph 16.1 mph N/A   Overcast
5:15 PM 50.0 °F 39.6 °F 67% 29.62 in 10.0 mi WSW 10.4 mph - N/A   Overcast
5:34 PM 50.0 °F 39.2 °F 66% 29.62 in 10.0 mi WSW 6.9 mph - N/A   Overcast
5:55 PM 49.6 °F 39.2 °F 67% 29.63 in 10.0 mi WSW 9.2 mph - N/A   Overcast
6:14 PM 49.3 °F 39.4 °F 69% 29.64 in 10.0 mi WSW 11.5 mph - N/A   Overcast
6:34 PM 49.3 °F 38.8 °F 67% 29.64 in 10.0 mi West 8.1 mph - N/A   Overcast
6:55 PM 49.1 °F 39.2 °F 69% 29.65 in 10.0 mi WSW 6.9 mph - N/A   Overcast
7:14 PM 49.1 °F 39.4 °F 69% 29.65 in 10.0 mi WSW 9.2 mph - N/A   Overcast
7:35 PM 49.1 °F 39.6 °F 70% 29.66 in 10.0 mi West 6.9 mph - N/A   Overcast
7:55 PM 48.7 °F 39.7 °F 71% 29.66 in 10.0 mi WSW 6.9 mph - N/A   Overcast
8:14 PM 48.4 °F 40.1 °F 73% 29.67 in 10.0 mi WSW 6.9 mph - N/A   Overcast
8:35 PM 48.2 °F 40.1 °F 74% 29.67 in 10.0 mi West 8.1 mph - N/A   Overcast
8:55 PM 48.2 °F 40.3 °F 74% 29.67 in 10.0 mi WSW 5.8 mph - N/A   Overcast
9:14 PM 48.2 °F 40.5 °F 75% 29.67 in 10.0 mi WSW 9.2 mph - N/A   Overcast
9:35 PM 48.2 °F 40.5 °F 75% 29.67 in 10.0 mi WSW 6.9 mph - N/A   Overcast
9:54 PM 48.2 °F 40.6 °F 75% 29.67 in 10.0 mi WSW 5.8 mph - N/A   Overcast
10:14 PM 48.2 °F 40.6 °F 75% 29.67 in 10.0 mi WSW 5.8 mph - N/A   Overcast
10:35 PM 48.2 °F 40.6 °F 75% 29.68 in 10.0 mi WSW 6.9 mph - N/A   Overcast
10:54 PM 48.2 °F 41.0 °F 76% 29.68 in 10.0 mi WSW 5.8 mph - N/A   Overcast
11:14 PM 48.2 °F 41.0 °F 76% 29.68 in 10.0 mi SW 6.9 mph - N/A   Overcast
11:34 PM 48.0 °F 41.0 °F 77% 29.68 in 10.0 mi SW 6.9 mph - N/A   Overcast
11:54 PM 48.0 °F 41.2 °F 77% 29.68 in 10.0 mi WSW 8.1 mph - N/A   Overcast